Flag for South Africa Weather past 2 weeks in Cape Town, South Africa

Now
68 °F

Passing clouds.


Feels Like: 68 °F
Forecast: 63 / 75 °F
Wind: 5 mph from South

Location: Cape Town International Airport

Current Time: Oct 20, 2014 at 9:02:43 PM

Latest Report: Oct 20, 2014 at 8:00 PM


Visibility: N/A

Pressure: 29.95 "Hg

Humidity: 60%

Dew point: 54 °F

Location of Cape TownLocation

Historic Weather in Cape Town — Graph

°F

Cape Town temperature yesterday

Maximum temperature yesterday: 82 °F (at 2:00 PM)
Minimum temperature yesterday: 57 °F (at 2:00 AM)
Average temperature yesterday: 68 °F

Past Weeks' High & Low Weather Summary

 TemperatureHumidityPressure
High90 °F (Oct 6, 11:00 AM)94% (Oct 6, 12:00 AM)30.27 "Hg (Oct 6, 12:00 AM)
Low45 °F (Oct 9, 6:00 AM)24% (Oct 18, 11:00 AM)29.59 "Hg (Oct 9, 10:00 AM)
Average64 °F67%30.05 "Hg
* Reported Oct 5 8:00 PM — Oct 20 8:00 PM, Cape Town, Weather by CustomWeather, © 2014

Note: Actual official high and low records may vary slightly from our data, if they occured in-between our weather recording intervals... More about our weather records

Advertising

Cape Town weather history for previous 24 hours

 ConditionsComfort  
Time TempWeatherWind HumidityBarometerVisibility
8:00 PM
Oct 20
68 °FPassing clouds.5 mph60%29.95 "HgN/A
7:00 PM70 °FClear.14 mph64%29.92 "Hg10 mi
6:00 PM75 °FSunny.16 mph54%29.92 "Hg10 mi
5:00 PM73 °FSunny.15 mph57%29.92 "Hg10 mi
4:00 PM75 °FSunny.15 mph54%29.92 "Hg10 mi
3:00 PM79 °FSunny.14 mph42%29.92 "Hg10 mi
2:00 PM82 °FSunny.17 mph37%29.95 "Hg10 mi
1:00 PM82 °FPassing clouds.10 mph37%29.95 "HgN/A
12:00 PM81 °FPassing clouds.6 mph34%29.98 "HgN/A
11:00 AM79 °FSunny.3 mph37%29.98 "Hg10 mi
10:00 AM73 °FSunny.3 mph50%29.98 "Hg10 mi
9:00 AM70 °FPassing clouds.6 mph53%29.98 "HgN/A
8:00 AM66 °FSunny.1 mph64%29.98 "Hg10 mi
7:00 AM57 °FSunny.3 mph77%29.95 "Hg10 mi
5:00 AM61 °FSunny.9 mph68%29.92 "Hg10 mi
4:00 AM61 °FClear.8 mph68%29.92 "Hg10 mi
3:00 AM61 °FClear.10 mph68%29.92 "Hg10 mi
2:00 AM63 °FClear.13 mph73%29.92 "Hg10 mi
1:00 AM63 °FClear.7 mph68%29.95 "Hg10 mi
12:00 AM64 °FClear.15 mph68%29.95 "Hg10 mi
11:00 PM
Oct 19
64 °FClear.10 mph73%29.95 "Hg10 mi
10:00 PM64 °FClear.8 mph68%29.95 "Hg10 mi
9:00 PM68 °FPassing clouds.12 mph64%29.95 "HgN/A
Weather by CustomWeather, © 2014

See weather overviewHow to use our weather pages